Location: Gro�sch�nbrunn
(49.5760°N, 11.8868°E)
Time: 08:35:21
(UTC+00:00)

N. Korean satellite - Pass Details

Date: 30 November 2020
Orbit: 453 x 502 km, 97.2° (Epoch: 16 January)

Event Time Altitude Azimuth Distance (km) Brightness Sun altitude
Rises 16:46:57 0° 205° (SSW) 2,460 10.8 -14.2°
Reaches altitude 10° 16:49:32 10° 227° (SW) 1,598 10.2 -14.6°
Maximum altitude 16:51:48 17° 269° (W) 1,257 9.7 -14.9°
Drops below altitude 10° 16:54:06 10° 310° (NW) 1,620 9.7 -15.3°
Sets 16:56:45 0° 332° (NNW) 2,511 10.4 -15.7°
